This is the latest recevied weather packets stored in our database for station/object K3FAZ. If no packets are shown the sender has not sent any weather packets the latest 10 day(s).
| Time | Temp. | Humidity | Pressure | Rain* | Wind** | Luminosity | Snow |
|---|---|---|---|---|---|---|---|
| 1777559447 | 7.22° C | 90% | 1014.3 hPa | 0 mm | - | 123 W/m² | - |
| 1777559145 | 7.22° C | 90% | 1014.2 hPa | 0 mm | - | 186 W/m² | - |
| 1777558845 | 7.22° C | 91% | 1014 hPa | 0 mm | - | 191 W/m² | - |
| 1777558540 | 6.67° C | 92% | 1014 hPa | 0 mm | - | 171 W/m² | - |
| 1777558237 | 7.22° C | 92% | 1013.9 hPa | 0 mm | - | 101 W/m² | - |
| 1777557933 | 7.22° C | 93% | 1013.9 hPa | 0 mm | - | 131 W/m² | - |
| 1777557630 | 6.67° C | 93% | 1013.9 hPa | 0 mm | - | 143 W/m² | - |
| 1777557326 | 6.67° C | 94% | 1013.6 hPa | 0 mm | - | 112 W/m² | - |
| 1777557022 | 6.67° C | 94% | 1013.5 hPa | 0 mm | - | 73 W/m² | - |
| 1777556718 | 6.67° C | 94% | 1013.6 hPa | 0 mm | - | 61 W/m² | - |
| 1777556415 | 7.22° C | 94% | 1013.5 hPa | 0 mm | - | 69 W/m² | - |
| 1777556114 | 7.22° C | 94% | 1013.4 hPa | 0 mm | - | 63 W/m² | - |
| 1777555810 | 7.78° C | 94% | 1013.3 hPa | 0 mm | - | 68 W/m² | - |
| 1777555506 | 7.78° C | 93% | 1013.1 hPa | 0 mm | - | 110 W/m² | - |
| 1777555202 | 7.78° C | 93% | 1013.2 hPa | 0 mm | - | 76 W/m² | - |
| 1777554900 | 7.78° C | 93% | 1013.1 hPa | 0 mm | - | 58 W/m² | - |
| 1777554596 | 7.78° C | 93% | 1013 hPa | 0 mm | - | 80 W/m² | - |
| 1777554293 | 7.78° C | 94% | 1013.1 hPa | 0 mm | - | 113 W/m² | - |
| 1777553990 | 8.33° C | 94% | 1012.9 hPa | 0 mm | - | 90 W/m² | - |
| 1777553687 | 7.78° C | 94% | 1012.9 hPa | 0 mm | - | 69 W/m² | - |
| 1777553384 | 8.33° C | 94% | 1012.9 hPa | 0 mm | - | 113 W/m² | - |
| 1777553080 | 8.33° C | 95% | 1012.8 hPa | 0 mm | - | 120 W/m² | - |
| 1777552779 | 8.33° C | 95% | 1012.8 hPa | 0 mm | - | 87 W/m² | - |
| 1777552475 | 8.33° C | 95% | 1012.7 hPa | 1.78 mm | - | 44 W/m² | - |
| 1777552172 | 8.33° C | 95% | 1012.5 hPa | 1.78 mm | - | 81 W/m² | - |
* Rain latest hour (hover to see other rain measurements)
** Current wind speed in m/s (hover to see current wind gust speed)